Weather History for Pagosa Springs, CO

Change the Weather History Date:

Wednesday, January 8, 2014

  Actual Average (KDRO) Record (KDRO)
Temperature  
Mean Temperature 22 °F 23 °F  
Max Temperature 36 °F 37 °F 54 °F (1981)
Min Temperature 8 °F 9 °F -15 °F (1971)
Degree Days  
Heating Degree Days 43 42  
Month to date heating degree days 335  
Since 1 July heating degree days 3209  
Cooling Degree Days 0 0  
Month to date cooling degree days 0  
Year to date cooling degree days 0  
Moisture  
Dew Point 10 °F    
Average Humidity 63    
Maximum Humidity 92    
Minimum Humidity 33    
Precipitation  
Precipitation 0.00 in 0.04 in 0.70 in (1974)
Month to date precipitation 0.29  
Year to date precipitation 0.29  
Sea Level Pressure  
Sea Level Pressure 30.07 in    
Wind  
Wind Speed 1 mph (SSW)    
Max Wind Speed 6 mph    
Max Gust Speed -    
Visibility 10 miles    
Events      
T = Trace of Precipitation, MM = Missing Value Source: NWS Daily Summary

Daily Weather History Graph

Daily Weather History Graph

Search for Another Location

Airport:

Trip Planner

Search our weather history database for the weather conditions in past years. The results will help you decide how hot, cold, wet, or windy it might be!

Date:

Astronomy

Jan. 08, 2014 Rise Set
Actual Time 7:22 AM MST 5:07 PM MST
Civil Twilight 6:53 AM MST 5:36 PM MST
Nautical Twilight 6:21 AM MST 6:08 PM MST
Astronomical Twilight 5:49 AM MST 6:40 PM MST
Moon 11:57 AM MST (1/8) 12:35 AM MST (1/8)
Length of Visible Light 10h 42m
Length of Day
9h 45m
First Quarter, 56% of the Moon is Illuminated
Jan 8
First Quarter
Jan 15
Full
Jan 23
Last Quarter
Jan 30
New
Feb 6
First Quarter

Hourly Weather History & Observations

Time (MST) Temp. Windchill Dew Point Humidity Pressure Visibility Wind Dir Wind Speed Gust Speed Precip Events Conditions
12:15 AM 15.3 °F - 8.1 °F 73% 30.07 in 10.0 mi Calm Calm - N/A   Unknown
12:35 AM 13.6 °F - 6.3 °F 72% 30.07 in 10.0 mi Calm Calm - N/A   Unknown
12:55 AM 12.0 °F - 6.1 °F 77% 30.07 in 10.0 mi Calm Calm - N/A   Unknown
1:15 AM 14.0 °F - 6.3 °F 71% 30.07 in 10.0 mi Calm Calm - N/A   Unknown
1:35 AM 14.4 °F - 8.4 °F 77% 30.07 in 10.0 mi Calm Calm - N/A   Unknown
1:55 AM 12.7 °F - 6.1 °F 75% 30.07 in 10.0 mi Calm Calm - N/A   Unknown
2:15 AM 11.8 °F - 6.3 °F 78% 30.07 in 10.0 mi Calm Calm - N/A   Unknown
2:35 AM 12.0 °F - 6.3 °F 78% 30.07 in 10.0 mi Calm Calm - N/A   Unknown
2:55 AM 12.0 °F - 6.3 °F 78% 30.07 in 10.0 mi Calm Calm - N/A   Unknown
3:15 AM 9.5 °F - 5.0 °F 82% 30.07 in 10.0 mi Calm Calm - N/A   Unknown
3:35 AM 13.3 °F - 8.1 °F 80% 30.07 in 10.0 mi Calm Calm - N/A   Unknown
3:55 AM 12.6 °F - 6.6 °F 77% 30.07 in 10.0 mi Calm Calm - N/A   Unknown
4:15 AM 10.6 °F - 4.8 °F 78% 30.07 in 10.0 mi Calm Calm - N/A   Unknown
4:35 AM 12.2 °F - 6.4 °F 78% 30.07 in 10.0 mi Calm Calm - N/A   Unknown
4:55 AM 11.3 °F - 6.4 °F 81% 30.07 in 10.0 mi Calm Calm - N/A   Unknown
5:15 AM 11.7 °F - 7.0 °F 81% 30.07 in 10.0 mi Calm Calm - N/A   Unknown
5:35 AM 12.0 °F - 7.9 °F 83% 30.07 in 10.0 mi Calm Calm - N/A   Unknown
5:55 AM 8.2 °F - 5.4 °F 88% 30.07 in 10.0 mi Calm Calm - N/A   Unknown
6:15 AM 9.7 °F - 7.7 °F 92% 30.06 in 10.0 mi Calm Calm - N/A   Unknown
6:35 AM 9.7 °F - 5.0 °F 81% 30.05 in 10.0 mi Calm Calm - N/A   Unknown
6:55 AM 9.5 °F - 6.1 °F 86% 30.05 in 10.0 mi Calm Calm - N/A   Unknown
7:15 AM 11.5 °F - 7.9 °F 85% 30.05 in 10.0 mi Calm Calm - N/A   Unknown
7:35 AM 8.4 °F - 6.1 °F 90% 30.07 in 10.0 mi Calm Calm - N/A   Unknown
7:55 AM 9.3 °F - 7.5 °F 92% 30.08 in 10.0 mi Calm Calm - N/A   Unknown
8:15 AM 10.6 °F - 6.1 °F 82% 30.08 in 10.0 mi Calm Calm - N/A   Unknown
8:35 AM 15.6 °F - 8.4 °F 73% 30.09 in 10.0 mi Calm Calm - N/A   Unknown
8:55 AM 18.1 °F - 9.0 °F 67% 30.09 in 10.0 mi Calm Calm - N/A   Unknown
9:15 AM 16.5 °F - 8.8 °F 72% 30.10 in 10.0 mi Calm Calm - N/A   Unknown
9:35 AM 19.4 °F - 9.9 °F 66% 30.11 in 10.0 mi Calm Calm - N/A   Unknown
9:55 AM - - - N/A% - - North - - N/A   Unknown
10:15 AM - - - N/A% - - North - - N/A   Unknown
10:35 AM - - - N/A% - - North - - N/A   Unknown
10:55 AM - - - N/A% - - North - - N/A   Unknown
11:15 AM - - - N/A% - - North - - N/A   Unknown
11:35 AM - - - N/A% - - North - - N/A   Unknown
11:55 AM - - - N/A% - - North - - N/A   Unknown
12:15 PM 32.2 °F 27.7 °F 10.8 °F 41% 30.04 in 10.0 mi SSW 4.6 mph - N/A   Unknown
12:35 PM 33.8 °F 29.6 °F 10.8 °F 38% 30.04 in 10.0 mi SW 4.6 mph - N/A   Scattered Clouds
12:55 PM 34.7 °F 29.6 °F 10.8 °F 37% 30.03 in 10.0 mi SW 5.8 mph - N/A   Overcast
1:15 PM 35.2 °F 30.3 °F 10.6 °F 36% 30.03 in 10.0 mi SW 5.8 mph - N/A   Mostly Cloudy
1:35 PM 35.8 °F 31.9 °F 9.9 °F 34% 30.02 in 10.0 mi SW 4.6 mph - N/A   Mostly Cloudy
1:55 PM 36.5 °F 31.8 °F 9.5 °F 33% 30.02 in 10.0 mi SW 5.8 mph - N/A   Mostly Cloudy
2:15 PM 36.0 °F 33.3 °F 10.6 °F 35% 30.02 in 10.0 mi WSW 3.5 mph - N/A   Overcast
2:35 PM 36.5 °F 32.7 °F 9.5 °F 33% 30.03 in 10.0 mi SW 4.6 mph - N/A   Mostly Cloudy
2:55 PM 36.1 °F 32.3 °F 9.3 °F 33% 30.03 in 10.0 mi SSW 4.6 mph - N/A   Mostly Cloudy
3:15 PM 35.4 °F 30.5 °F 13.6 °F 41% 30.04 in 10.0 mi South 5.8 mph - N/A   Mostly Cloudy
3:35 PM 34.9 °F 29.9 °F 11.3 °F 38% 30.05 in 10.0 mi SSE 5.8 mph - N/A   Overcast
3:55 PM 35.2 °F 32.4 °F 12.0 °F 38% 30.05 in 10.0 mi SSE 3.5 mph - N/A   Overcast
4:15 PM 35.4 °F 31.5 °F 11.1 °F 37% 30.05 in 10.0 mi SSE 4.6 mph - N/A   Overcast
4:35 PM 35.6 °F - 10.8 °F 36% 30.05 in 10.0 mi Calm Calm - N/A   Overcast
4:55 PM 35.4 °F - 11.1 °F 37% 30.05 in 10.0 mi Calm Calm - N/A   Overcast
5:15 PM 34.0 °F - 10.9 °F 38% 30.05 in 10.0 mi Calm Calm - N/A   Mostly Cloudy
5:35 PM 27.0 °F - 13.8 °F 58% 30.06 in 10.0 mi Calm Calm - N/A   Scattered Clouds
5:55 PM 27.3 °F - 13.1 °F 55% 30.07 in 10.0 mi Calm Calm - N/A   Scattered Clouds
6:15 PM 25.9 °F - 12.7 °F 58% 30.07 in 10.0 mi Calm Calm - N/A   Clear
6:35 PM 26.4 °F - 13.5 °F 58% 30.07 in 10.0 mi Calm Calm - N/A   Mostly Cloudy
6:55 PM 26.6 °F - 13.8 °F 59% 30.08 in 10.0 mi Calm Calm - N/A   Overcast
7:15 PM 26.2 °F - 14.0 °F 60% 30.08 in 10.0 mi Calm Calm - N/A   Overcast
7:35 PM 26.8 °F - 13.3 °F 57% 30.08 in 10.0 mi Calm Calm - N/A   Overcast
7:55 PM 24.4 °F - 14.0 °F 65% 30.08 in 10.0 mi Calm Calm - N/A   Overcast
8:15 PM 26.1 °F - 13.8 °F 60% 30.09 in 10.0 mi Calm Calm - N/A   Overcast
8:35 PM 24.4 °F - 12.9 °F 62% 30.09 in 10.0 mi Calm Calm - N/A   Mostly Cloudy
8:55 PM 24.4 °F - 13.6 °F 64% 30.09 in 10.0 mi Calm Calm - N/A   Overcast
9:15 PM 24.3 °F - 13.3 °F 63% 30.09 in 10.0 mi Calm Calm - N/A   Overcast
9:35 PM 25.7 °F - 13.3 °F 59% 30.09 in 10.0 mi Calm Calm - N/A   Overcast
9:55 PM 26.6 °F - 14.7 °F 61% 30.10 in 10.0 mi Calm Calm - N/A   Overcast
10:15 PM 25.5 °F - 15.3 °F 65% 30.09 in 10.0 mi Calm Calm - N/A   Overcast
10:35 PM 25.0 °F - 13.1 °F 61% 30.09 in 10.0 mi Calm Calm - N/A   Overcast
10:55 PM 25.5 °F - 14.0 °F 62% 30.09 in 10.0 mi Calm Calm - N/A   Overcast
11:15 PM 25.0 °F - 14.4 °F 64% 30.09 in 10.0 mi Calm Calm - N/A   Mostly Cloudy
11:35 PM 23.9 °F - 14.5 °F 67% 30.09 in 10.0 mi Calm Calm - N/A   Mostly Cloudy
11:55 PM 23.9 °F - 14.4 °F 67% 30.09 in 10.0 mi Calm Calm - N/A   Mostly Cloudy